Погода в Косолапово

Россия / Курганская область     54°29′57″N   63°59′39″E
темп.,
°C
ветер,
м/с
пор.,
м/с
влажн.,
%
обл.,
%
осадки,
мм/ч
давл.,
гПа
погр.,
м
20 апреля, вт
вт2023:00−2юз11415 0.0 103310
02:00−2зсз22440 0.0 103314
05:00−3с23510 0.0 103445
08:000ссв35400 0.0 1034429
11:00+2ссв34285 0.0 10341275
14:00+5ссз33254 0.0 10321472
17:00+6сз34250 0.0 10311533
20:00+4зсз22385 0.0 103117
21 апреля, ср
ср2123:00+2зюз35440 0.0 103060
02:00+1з48520 0.0 1030132
05:00+1сз36650 0.0 103083
08:00+5сз47580 0.0 1031268
11:00+9ссз55430 0.0 10311039
14:00+12ссз44355 0.0 10311606
17:00+12с33345 0.0 10311667
20:00+9ссв22485 0.0 103310
22 апреля, чт
чт2223:00+7всв22542 0.0 103414
02:00+5юв34730 0.0 103555
05:00+4юв33790 0.0 103639
08:00+7ююв34635 0.0 1037187
11:00+12ююв444228 0.0 10371050
14:00+14ю4534100 0.0 10371783
17:00+15ю453397 0.0 10361812
20:00+12ююв3748100 0.0 1036139
23 апреля, пт
пт2323:00+10ююв4957100 0.0 1036231
02:00+7ююв386795 0.0 1036149
05:00+6ю497298 0.0 1036193
08:00+9ю51054100 0.0 1036359
11:00+12ю6841100 0.0 1035863
14:00+13ю6737100 0.0 10341479
17:00+14ю6734100 0.0 10331879
20:00+11юв4847100 0.0 1032173
24 апреля, сб
сб2423:00+9ююв41049100 0.0 1031232
02:00+8ююв41052100 0.0 1030234
05:00+7юв3854100 0.0 1029172
08:00+8юв5852100 0.0 1028261
11:00+11ююв6841100 0.0 1027784
14:00+11ююв6841100 0.0 10261111
17:00+14ююв7928100 0.0 10241872
20:00+10ююв3544100 0.0 1023179